Showing default

OPS 9345 (IDSCS 23), 3288

Orbit data source: Space-Track

OPS 9345 (IDSCS 23), 3288 is a payload satellite owned by SAMSO (US) in GEO that was launched on Thu, 13 Jun 1968 UTC via a TITAN IIIC launch vehicle from the Air Force Eastern Test Range (AFETR). Payloads include a variety of satellites, spacecraft, and rockets equipped with specific instruments for various scientific and technological missions. These include communications satellites like Starlink; space stations such as the ISS; scientific satellites like the Hubble; Earth observation satellites from companies like Planet Labs, Umbra, and HawkEye 360; GPS; miniature CubeSats for education and research; and military/defense satellites.

Loading next visibility...
OPS 9345 (IDSCS 23) details
Identifier
3288, 1968-050E
Orbit
GEO
Last TLE update1 day ago
Origin
Flag of USSAMSO (US)
ManufacturerPhilco-Ford
MissionNon-operational Defense Communications
Bus & MotorIDCSP, Unknown motor
Mass45 kg wet, 45 kg dry
Launch date (UTC)
1968-06-13 (57 years ago)
Launch vehicle
TITAN IIIC
Launch site
Air Force Eastern Test Range (AFETR)
Object type
Payload
Rocket body
Debris
Shape & HBRPoly, 0.9 m
Radar Cross Section0.926 m², Small (<0.1 m²)

Expand to show TLE details & history

TLE from 1 day ago
0 OPS 9345 (IDSCS 23)
1 03288U 68050E   24355.52578414 -.00000045  00000-0  00000-0 0  9995
2 03288   5.9740  57.5426 0034844 129.2199 261.7599  1.07477612133408
Epoch: 2024-12-20T12:37Z
Definitive object data (Epoch: 2024-12-20T12:37:07.749Z)
Latitude3.05539°
Longitude169.12472°
Altitude33,899.957 km
Speed3.145 km/s
True Right ascension05h 51m 59s
True Declination3° 03' 08"
Sunlit
Object was in daylight at TLE epoch
Visualization TLE readout
Latitude5.48393°
Longitude-155.32982°
Altitude33,815.631 km
Speed3.152 km/s
Apparent Right ascension07h 48m 33s
Apparent Declination0° 21' 18"
Sunlit
Object is in daylight
Visualization observer readout
Local Sidereal Time12:10:53
Azimuth253.482° W
Elevation18.246°
Doppler factor1
Orbital elements
Apogee altitude34,021.643 km
Perigee altitude33,741.083 km
Semi-major axis40,259.5 km
Eccentricity0.0034844
Inclination5.974°
RAAN57.5426°
Arg. of periapsis129.2199°
True anomaly261.36499°
Mean anomaly261.7599°
Eccentric anomaly261.56242°
Mean motion0.26868 °/min
BSTARUnknown
Orbital period1339.87 mins
Loading historical data...
3288 neighbors
Authenticating...
Loading maneuver chart data...
Loading historical data...
Loading historical data...
Loading historical data...
Loading historical data...
Loading historical data...
Loading historical data...
Loading historical data...

OPS 9345 (IDSCS 23) Visibility forecast

Observer location: undefined°, undefined

Span
Click to sort rows by Start time (UTC) header in descending order
Start Az.
Max El. time (UTC)
Max El. Az.
Max El.
End time (UTC)
End Az.
1440 mins2024-12-21 13:08:58.342Z253.466° W2024-12-22 13:08:58.342Z229.945° WSW31.484°2024-12-22 13:08:58.342Z229.945° WSW
|